Weather History for KPPO - April, 2014

Change the Weather History Date:

Tuesday, April 15, 2014

  Actual Average (KVPZ) Record (KVPZ)
Temperature  
Mean Temperature 30 °F 49 °F  
Max Temperature 34 °F 60 °F 87 °F (2002)
Min Temperature 24 °F 38 °F 23 °F (2014)
Degree Days  
Heating Degree Days 36 16  
Month to date heating degree days 281  
Since 1 July heating degree days 5858  
Cooling Degree Days 0 0  
Month to date cooling degree days 0  
Year to date cooling degree days 0  
Moisture  
Dew Point 16 °F    
Average Humidity 60    
Maximum Humidity 89    
Minimum Humidity 35    
Precipitation  
Precipitation 0.00 in 0.12 in 0.92 in (2013)
Month to date precipitation 1.64  
Year to date precipitation 7.29  
Sea Level Pressure  
Sea Level Pressure 30.10 in    
Wind  
Wind Speed 11 mph (NNW)    
Max Wind Speed 18 mph    
Max Gust Speed 29 mph    
Visibility 10 miles    
Events Snow    
T = Trace of Precipitation, MM = Missing Value Source: NWS Daily Summary

Daily Weather History Graph

Daily Weather History Graph

Search for Another Location

Airport or City:

Trip Planner

Search our weather history database for the weather conditions in past years. The results will help you decide how hot, cold, wet, or windy it might be!

Date:

Astronomy

Apr. 15, 2014 Rise Set
Actual Time 6:07 AM CDT 7:27 PM CDT
Civil Twilight 5:38 AM CDT 7:56 PM CDT
Nautical Twilight 5:03 AM CDT 8:31 PM CDT
Astronomical Twilight 4:27 AM CDT 9:07 PM CDT
Moon 8:08 PM CDT (4/15) 6:14 AM CDT (4/15)
Length of Visible Light 14h 18m
Length of Day
13h 20m
Full, 100% of the Moon is Illuminated
Apr 15
Full
Apr 22
Last Quarter
Apr 29
New
May 6
First Quarter
May 14
Full

Hourly Weather History & Observations

Time (CDT) Temp. Windchill Dew Point Humidity Pressure Visibility Wind Dir Wind Speed Gust Speed Precip Events Conditions
12:15 AM 29.3 °F 19.6 °F 24.6 °F 83% 29.94 in 10.0 mi North 11.5 mph - N/A   Overcast
12:35 AM 29.3 °F 19.1 °F 24.8 °F 83% 29.94 in 10.0 mi North 12.7 mph 18.4 mph N/A   Overcast
12:55 AM 29.3 °F 19.1 °F 24.6 °F 83% 29.94 in 10.0 mi North 12.7 mph 21.9 mph N/A   Overcast
1:15 AM 29.1 °F 18.4 °F 24.1 °F 81% 29.94 in 10.0 mi North 13.8 mph 20.7 mph N/A Snow Light Snow
1:35 AM 28.9 °F 16.9 °F 23.0 °F 78% 29.94 in 10.0 mi North 17.3 mph - N/A   Overcast
1:55 AM 28.4 °F 19.1 °F 22.6 °F 79% 29.95 in 10.0 mi North 10.4 mph 17.3 mph N/A   Overcast
2:15 AM 28.4 °F 17.5 °F 21.6 °F 76% 29.94 in 10.0 mi North 13.8 mph - N/A   Overcast
2:35 AM 27.5 °F 17.4 °F 20.8 °F 76% 29.94 in 10.0 mi North 11.5 mph 20.7 mph N/A   Mostly Cloudy
2:55 AM 28.0 °F 16.1 °F 21.0 °F 75% 29.95 in 10.0 mi North 16.1 mph - N/A   Mostly Cloudy
3:15 AM 27.9 °F 17.3 °F 21.0 °F 75% 29.95 in 10.0 mi North 12.7 mph 18.4 mph N/A   Overcast
3:35 AM 27.9 °F 15.5 °F 20.3 °F 73% 29.95 in 10.0 mi North 17.3 mph 21.9 mph N/A   Overcast
3:55 AM 28.0 °F 17.0 °F 20.5 °F 73% 29.96 in 10.0 mi North 13.8 mph 17.3 mph N/A   Overcast
4:15 AM 27.5 °F 16.8 °F 21.2 °F 77% 29.97 in 4.0 mi North 12.7 mph - N/A Snow Light Snow
4:35 AM 27.1 °F 17.5 °F 22.6 °F 83% 29.98 in 2.0 mi NNW 10.4 mph - N/A Snow Light Snow
4:55 AM 26.6 °F 16.2 °F 23.7 °F 89% 29.98 in 3.0 mi NNW 11.5 mph - N/A Snow Light Snow
5:15 AM 26.6 °F 14.7 °F 21.9 °F 82% 29.98 in 10.0 mi North 15.0 mph - N/A   Mostly Cloudy
5:35 AM 27.0 °F 16.7 °F 17.8 °F 68% 29.99 in 10.0 mi NNW 11.5 mph 20.7 mph N/A   Mostly Cloudy
5:55 AM 26.6 °F 14.3 °F 17.4 °F 68% 29.99 in 10.0 mi NNW 16.1 mph 21.9 mph N/A   Mostly Cloudy
6:15 AM 26.6 °F 15.7 °F 18.3 °F 71% 30.00 in 10.0 mi NNW 12.7 mph 19.6 mph N/A   Mostly Cloudy
6:55 AM 27.1 °F 17.5 °F 18.1 °F 69% 30.03 in 10.0 mi NNW 10.4 mph - N/A   Mostly Cloudy
7:15 AM 26.4 °F 14.5 °F 16.5 °F 66% 30.04 in 10.0 mi NNW 15.0 mph 20.7 mph N/A   Scattered Clouds
7:55 AM 26.6 °F 14.3 °F 16.3 °F 65% 30.05 in 10.0 mi NW 16.1 mph 21.9 mph N/A   Mostly Cloudy
8:15 AM 27.9 °F 16.8 °F 14.9 °F 58% 30.06 in 10.0 mi NNW 13.8 mph 20.7 mph N/A   Scattered Clouds
8:35 AM 28.2 °F 16.3 °F 14.2 °F 56% 30.06 in 10.0 mi North 16.1 mph 25.3 mph N/A   Mostly Cloudy
8:55 AM 27.1 °F 14.5 °F 13.8 °F 57% 30.07 in 10.0 mi NNW 17.3 mph 25.3 mph N/A   Scattered Clouds
9:15 AM 28.6 °F 17.7 °F 14.7 °F 56% 30.08 in 10.0 mi NW 13.8 mph 21.9 mph N/A   Mostly Cloudy
9:35 AM 28.2 °F 17.2 °F 15.4 °F 59% 30.09 in 10.0 mi NW 13.8 mph 24.2 mph N/A   Overcast
9:55 AM 27.5 °F 16.8 °F 15.3 °F 60% 30.09 in 10.0 mi NW 12.7 mph 23.0 mph N/A   Mostly Cloudy
10:15 AM 27.5 °F 14.6 °F 13.3 °F 55% 30.11 in 10.0 mi NNW 18.4 mph 23.0 mph N/A   Mostly Cloudy
10:35 AM 29.1 °F 17.5 °F 13.8 °F 53% 30.11 in 10.0 mi North 16.1 mph 28.8 mph N/A   Scattered Clouds
10:55 AM 29.1 °F 17.9 °F 13.8 °F 53% 30.12 in 10.0 mi NNW 15.0 mph 20.7 mph N/A   Scattered Clouds
11:15 AM 29.8 °F 18.9 °F 14.9 °F 54% 30.13 in 10.0 mi North 15.0 mph 24.2 mph N/A   Scattered Clouds
11:35 AM 30.4 °F 18.7 °F 14.9 °F 53% 30.14 in 10.0 mi NW 17.3 mph 21.9 mph N/A   Scattered Clouds
11:55 AM 30.4 °F 19.1 °F 14.4 °F 51% 30.14 in 10.0 mi NNW 16.1 mph 23.0 mph N/A   Scattered Clouds
12:35 PM 31.6 °F 21.2 °F 16.0 °F 52% 30.15 in 10.0 mi NW 15.0 mph 21.9 mph N/A   Scattered Clouds
12:55 PM 31.3 °F 23.3 °F 13.6 °F 48% 30.15 in 10.0 mi NNW 9.2 mph 23.0 mph N/A   Mostly Cloudy
1:15 PM 31.3 °F 20.7 °F 12.2 °F 45% 30.15 in 10.0 mi NNW 15.0 mph 18.4 mph N/A   Mostly Cloudy
1:35 PM 32.4 °F 23.5 °F 14.5 °F 48% 30.15 in 10.0 mi NW 11.5 mph 19.6 mph N/A   Scattered Clouds
1:55 PM 32.0 °F 21.6 °F 10.6 °F 41% 30.16 in 10.0 mi NW 15.0 mph 21.9 mph N/A   Scattered Clouds
2:15 PM 32.4 °F 22.1 °F 10.2 °F 40% 30.16 in 10.0 mi North 15.0 mph 20.7 mph N/A   Clear
2:35 PM 32.9 °F 23.7 °F 8.2 °F 36% 30.16 in 10.0 mi NNW 12.7 mph 19.6 mph N/A   Clear
2:55 PM 32.4 °F 24.0 °F 7.2 °F 35% 30.16 in 10.0 mi NW 10.4 mph 19.6 mph N/A   Clear
3:15 PM 32.9 °F 24.7 °F 9.5 °F 38% 30.16 in 10.0 mi North 10.4 mph - N/A   Clear
3:35 PM 33.3 °F 25.1 °F 11.1 °F 40% 30.16 in 10.0 mi NNW 10.4 mph 18.4 mph N/A   Clear
3:55 PM 33.6 °F 26.2 °F 10.9 °F 39% 30.16 in 10.0 mi WNW 9.2 mph - N/A   Clear
4:15 PM 34.0 °F 25.0 °F 12.0 °F 40% 30.17 in 10.0 mi NW 12.7 mph 16.1 mph N/A   Clear
4:55 PM 33.6 °F 29.4 °F 11.7 °F 40% 30.16 in 10.0 mi NW 4.6 mph - N/A   Clear
5:15 PM 33.6 °F 26.8 °F 12.6 °F 42% 30.16 in 10.0 mi NNW 8.1 mph - N/A   Clear
5:35 PM 33.1 °F 28.7 °F 11.3 °F 40% 30.17 in 10.0 mi NNW 4.6 mph - N/A   Clear
5:55 PM 33.1 °F 26.9 °F 11.8 °F 41% 30.18 in 10.0 mi NW 6.9 mph - N/A   Clear
6:15 PM 32.9 °F 29.8 °F 11.1 °F 40% 30.17 in 10.0 mi West 3.5 mph - N/A   Clear
6:35 PM 32.9 °F - 12.7 °F 43% 30.18 in 10.0 mi Calm Calm - N/A   Clear
6:55 PM 32.2 °F - 10.8 °F 41% 30.18 in 10.0 mi Calm Calm - N/A   Clear
7:15 PM 32.0 °F - 11.7 °F 43% 30.18 in 10.0 mi Calm Calm - N/A   Clear
7:35 PM 30.9 °F - 13.8 °F 49% 30.19 in 10.0 mi Calm Calm - N/A   Clear
7:55 PM 30.2 °F - 16.2 °F 56% 30.19 in 10.0 mi Calm Calm - N/A   Clear
8:15 PM 27.9 °F - 18.7 °F 68% 30.20 in 10.0 mi Calm Calm - N/A   Clear
8:35 PM 27.7 °F - 18.7 °F 69% 30.21 in 10.0 mi Calm Calm - N/A   Clear
8:55 PM 27.5 °F - 16.7 °F 64% 30.21 in 10.0 mi Calm Calm - N/A   Clear
9:15 PM 27.7 °F - 17.4 °F 65% 30.22 in 10.0 mi Calm Calm - N/A   Clear
9:35 PM 27.5 °F - 16.7 °F 64% 30.23 in 10.0 mi Calm Calm - N/A   Scattered Clouds
9:55 PM 28.4 °F 24.6 °F 15.6 °F 59% 30.23 in 10.0 mi ESE 3.5 mph - N/A   Clear
10:15 PM 27.1 °F - 17.6 °F 67% 30.23 in 10.0 mi Calm Calm - N/A   Scattered Clouds
10:35 PM 26.8 °F - 16.9 °F 66% 30.23 in 10.0 mi Calm Calm - N/A   Scattered Clouds
10:55 PM 27.0 °F - 16.7 °F 65% 30.23 in 10.0 mi Calm Calm - N/A   Scattered Clouds
11:15 PM 26.4 °F - 19.6 °F 75% 30.23 in 10.0 mi Calm Calm - N/A   Scattered Clouds
11:35 PM 25.7 °F 21.5 °F 16.0 °F 67% 30.23 in 10.0 mi East 3.5 mph - N/A   Scattered Clouds
11:55 PM 24.8 °F 20.5 °F 17.4 °F 74% 30.23 in 10.0 mi ESE 3.5 mph - N/A   Scattered Clouds